Погода в Пуле

Хорватия     44°52′08″N   13°50′58″E
темп.,
°C
ветер,
м/с
пор.,
м/с
влажн.,
%
обл.,
%
осадки,
мм/ч
давл.,
гПа
погр.,
м
17 августа, ср
ср1723:00+25юв55840 0.0 1012408
02:00+25в55850 0.0 1012373
05:00+24вюв55866 0.0 1012443
08:00+25вюв55841 0.0 1013466
11:00+25юв44800 0.0 1014499
14:00+26юв44800 0.0 1013416
17:00+26вюв54795 0.0 1013306
20:00+25юв44820 0.0 1012199
18 августа, чт
чт1823:00+25юв458221 0.0 1012220
02:00+25в44800 0.0 1012192
05:00+25в66770 0.0 1011256
08:00+25вюв67736 0.0 1011319
11:00+26вюв5675100 0.0 1012306
14:00+26вюв2278100 0.0 1011163
17:00+26юв3477100 0.0 1010142
20:00+26вюв6779100 0.0 1009235
19 августа, пт
пт1923:00+25ссз3472100 0.1 1008125
02:00+25сз8980100 0.1 1008419
05:00+24с678014 1.1 1007289
08:00+24вюв69792 1.9 1007485
11:00+25юз457513 2.0 1008551
14:00+25зсз2369100 2.1 1009321
17:00+25зюз3469100 0.0 1009400
20:00+25зсз457028 0.1 1009600
20 августа, сб
сб2023:00+24зсз237344 0.6 1010275
02:00+24ссз447624 2.9 1010212
05:00+24сз34765 0.9 1010259
08:00+24ссз34739 1.2 1011357
11:00+25сз44705 0.0 1012368
14:00+25сз76695 0.0 1013305
17:00+25сз566522 0.0 1012141
20:00+26ссз44640 0.0 101262
21 августа, вс
вс2123:00+26ссв33621 0.0 101332
02:00+25в44670 0.0 101390
05:00+25всв33630 0.0 1013119
08:00+25св22580 0.0 1013116
11:00+25в23580 0.0 1014207
14:00+26зюз21534 0.0 1013216
17:00+27зсз3356100 0.0 1012185
20:00+26ссз556396 0.0 101176